When you browse on this site, cookies collect data to enhance your experience and personalize the content and advertising you see.
Visit our Privacy Policy to learn more. By continuing to use the site, you agree to this use of cookies and data.
  • In Switzerland
  • List of Countries
  • For 7 days
  • Water Temperature
  • Satellite Maps
  • Weather Map
  • Weather Widgets
  • user-avatar
    Login

    Hourly Weather Gifhorn

    Today, 19 July, Friday

    Time Temperature Precipitation Wind Pressure Humidity
    00:00 +18°C° 0.1 mm 2 mps 753 mmHg 78%
    01:00 +18°C° 0 mm 3 mps 753 mmHg 78%
    02:00 +17°C° 0.1 mm 2 mps 753 mmHg 83%
    03:00 +17°C° 0.1 mm 2 mps 753 mmHg 89%
    04:00 +16°C° 0.1 mm 2 mps 753 mmHg 95%
    05:00 +17°C° 0 mm 2 mps 754 mmHg 91%
    06:00 +18°C° 0 mm 2 mps 754 mmHg 88%
    07:00 +19°C° 0 mm 3 mps 754 mmHg 85%
    08:00 +20°C° 0.2 mm 3 mps 755 mmHg 81%
    09:00 +21°C° 0.2 mm 3 mps 755 mmHg 76%
    10:00 +22°C° 0.2 mm 4 mps 755 mmHg 72%
    11:00 +23°C° 0.1 mm 4 mps 755 mmHg 66%
    12:00 +25°C° 0.1 mm 4 mps 755 mmHg 59%
    13:00 +26°C° 0.1 mm 4 mps 755 mmHg 53%
    14:00 +26°C° 0 mm 4 mps 755 mmHg 52%
    15:00 +26°C° 0 mm 4 mps 755 mmHg 52%
    16:00 +26°C° 0 mm 3 mps 755 mmHg 51%
    17:00 +25°C° 0 mm 3 mps 755 mmHg 56%
    18:00 +24°C° 0 mm 2 mps 755 mmHg 61%
    19:00 +23°C° 0 mm 2 mps 755 mmHg 65%
    20:00 +21°C° 0 mm 2 mps 755 mmHg 68%
    21:00 +20°C° 0 mm 1 mps 756 mmHg 70%
    22:00 +18°C° 0 mm 1 mps 756 mmHg 73%
    23:00 +18°C° 0 mm 1 mps 756 mmHg 74%

    Tomorrow, 20 July, Saturday

    Time Temperature Precipitation Wind Pressure Humidity
    00:00 +16°C° 0 mm 2 mps 756 mmHg 75%
    01:00 +16°C° 0 mm 2 mps 756 mmHg 76%
    02:00 +16°C° 0 mm 2 mps 756 mmHg 77%
    03:00 +16°C° 0 mm 2 mps 756 mmHg 79%
    04:00 +16°C° 0 mm 2 mps 756 mmHg 80%
    05:00 +17°C° 0 mm 2 mps 756 mmHg 79%
    06:00 +18°C° 0 mm 2 mps 756 mmHg 78%
    07:00 +19°C° 0 mm 2 mps 756 mmHg 77%
    08:00 +21°C° 0 mm 3 mps 756 mmHg 70%
    09:00 +24°C° 0 mm 3 mps 755 mmHg 63%
    10:00 +26°C° 0 mm 3 mps 755 mmHg 56%
    11:00 +27°C° 0 mm 3 mps 755 mmHg 54%
    12:00 +28°C° 0 mm 4 mps 755 mmHg 51%
    13:00 +29°C° 0 mm 4 mps 755 mmHg 49%
    14:00 +28°C° 1.2 mm 4 mps 754 mmHg 58%
    15:00 +26°C° 1.2 mm 4 mps 754 mmHg 68%
    16:00 +25°C° 1.2 mm 5 mps 754 mmHg 77%
    17:00 +23°C° 0.6 mm 4 mps 754 mmHg 80%
    18:00 +22°C° 0.6 mm 3 mps 754 mmHg 84%
    19:00 +23°C° 0.6 mm 2 mps 754 mmHg 88%
    20:00 +21°C° 0.6 mm 2 mps 754 mmHg 89%
    21:00 +21°C° 0.6 mm 1 mps 755 mmHg 89%
    22:00 +21°C° 0.6 mm 1 mps 755 mmHg 90%
    23:00 +19°C° 0 mm 2 mps 755 mmHg 91%

    Day after tomorrow, 21 July, Sunday

    Time Temperature Precipitation Wind Pressure Humidity
    00:00 +19°C° 0 mm 2 mps 755 mmHg 92%
    01:00 +19°C° 0 mm 2 mps 755 mmHg 92%
    02:00 +18°C° 0 mm 2 mps 755 mmHg 93%
    03:00 +18°C° 0 mm 3 mps 755 mmHg 94%
    04:00 +17°C° 0 mm 3 mps 755 mmHg 95%
    05:00 +18°C° 0 mm 3 mps 756 mmHg 92%
    06:00 +19°C° 0 mm 4 mps 756 mmHg 89%
    07:00 +20°C° 0 mm 4 mps 756 mmHg 86%
    08:00 +21°C° 0.1 mm 5 mps 757 mmHg 80%
    09:00 +22°C° 0.1 mm 5 mps 757 mmHg 74%
    10:00 +23°C° 0.1 mm 6 mps 757 mmHg 67%
    11:00 +24°C° 0.3 mm 6 mps 758 mmHg 65%
    12:00 +24°C° 0.3 mm 6 mps 758 mmHg 63%
    13:00 +26°C° 0.3 mm 6 mps 758 mmHg 61%
    14:00 +26°C° 0 mm 6 mps 758 mmHg 59%
    15:00 +26°C° 0 mm 6 mps 759 mmHg 58%
    16:00 +26°C° 0 mm 6 mps 759 mmHg 56%
    17:00 +25°C° 0 mm 5 mps 759 mmHg 61%
    18:00 +23°C° 0 mm 4 mps 760 mmHg 66%
    19:00 +22°C° 0 mm 3 mps 760 mmHg 70%
    20:00 +21°C° 0 mm 3 mps 760 mmHg 75%
    21:00 +19°C° 0 mm 2 mps 761 mmHg 81%
    22:00 +18°C° 0 mm 2 mps 761 mmHg 86%
    23:00 +17°C° 0 mm 2 mps 761 mmHg 89%

    22 July, Monday

    Time Temperature Precipitation Wind Pressure Humidity
    00:00 +16°C° 0 mm 2 mps 762 mmHg 91%
    01:00 +16°C° 0 mm 1 mps 762 mmHg 94%
    02:00 +15°C° 0 mm 1 mps 762 mmHg 95%
    03:00 +15°C° 0 mm 1 mps 762 mmHg 95%
    04:00 +15°C° 0 mm 1 mps 762 mmHg 96%
    05:00 +16°C° 0 mm 1 mps 762 mmHg 92%
    06:00 +18°C° 0 mm 1 mps 763 mmHg 88%
    07:00 +19°C° 0 mm 1 mps 763 mmHg 84%
    08:00 +19°C° 0 mm 2 mps 763 mmHg 76%
    09:00 +21°C° 0 mm 2 mps 763 mmHg 68%
    10:00 +22°C° 0 mm 3 mps 763 mmHg 61%
    11:00 +24°C° 0 mm 3 mps 763 mmHg 57%
    12:00 +25°C° 0 mm 3 mps 763 mmHg 53%
    13:00 +26°C° 0 mm 3 mps 763 mmHg 49%
    14:00 +26°C° 0 mm 3 mps 763 mmHg 48%
    15:00 +27°C° 0 mm 2 mps 763 mmHg 48%
    16:00 +27°C° 0 mm 2 mps 763 mmHg 48%
    17:00 +26°C° 0 mm 2 mps 763 mmHg 53%
    18:00 +25°C° 0 mm 1 mps 763 mmHg 58%
    19:00 +25°C° 0 mm 1 mps 763 mmHg 64%
    20:00 +23°C° 0 mm 1 mps 763 mmHg 67%
    21:00 +19°C° 0 mm 0 mps 763 mmHg 70%
    22:00 +18°C° 0 mm 0 mps 763 mmHg 73%
    23:00 +18°C° 0 mm 0 mps 763 mmHg 74%

    23 July, Tuesday

    Time Temperature Precipitation Wind Pressure Humidity
    00:00 +19°C° 0 mm 1 mps 763 mmHg 75%
    01:00 +19°C° 0 mm 1 mps 763 mmHg 76%
    02:00 +19°C° 0 mm 1 mps 763 mmHg 77%
    03:00 +19°C° 0 mm 1 mps 763 mmHg 79%
    04:00 +18°C° 0 mm 1 mps 763 mmHg 80%
    05:00 +20°C° 0 mm 1 mps 763 mmHg 76%
    06:00 +19°C° 0 mm 0 mps 763 mmHg 72%
    07:00 +20°C° 0 mm 0 mps 763 mmHg 69%
    08:00 +22°C° 0 mm 0 mps 763 mmHg 63%
    09:00 +26°C° 0 mm 1 mps 762 mmHg 57%
    10:00 +28°C° 0 mm 1 mps 762 mmHg 52%
    11:00 +29°C° 0 mm 1 mps 762 mmHg 48%
    12:00 +30°C° 0 mm 1 mps 762 mmHg 45%
    13:00 +31°C° 0 mm 1 mps 762 mmHg 42%
    14:00 +31°C° 0 mm 1 mps 761 mmHg 41%
    15:00 +31°C° 0 mm 1 mps 761 mmHg 41%
    16:00 +32°C° 0 mm 1 mps 761 mmHg 41%
    17:00 +30°C° 0 mm 1 mps 761 mmHg 46%
    18:00 +29°C° 0 mm 1 mps 760 mmHg 52%
    19:00 +28°C° 0 mm 1 mps 760 mmHg 58%
    20:00 +26°C° 0 mm 2 mps 760 mmHg 61%
    21:00 +25°C° 0 mm 2 mps 760 mmHg 65%
    22:00 +23°C° 0 mm 2 mps 760 mmHg 68%
    23:00 +23°C° 0 mm 2 mps 760 mmHg 70%

    24 July, Wednesday

    Time Temperature Precipitation Wind Pressure Humidity
    00:00 +21°C° 0 mm 2 mps 760 mmHg 72%
    01:00 +20°C° 0 mm 2 mps 760 mmHg 74%
    02:00 +20°C° 0 mm 2 mps 760 mmHg 76%
    03:00 +19°C° 0 mm 2 mps 760 mmHg 78%
    04:00 +19°C° 0 mm 2 mps 760 mmHg 80%
    05:00 +20°C° 0 mm 3 mps 760 mmHg 77%
    06:00 +21°C° 0 mm 3 mps 760 mmHg 74%
    07:00 +24°C° 0 mm 3 mps 759 mmHg 70%
    08:00 +26°C° 0 mm 4 mps 759 mmHg 65%
    09:00 +28°C° 0 mm 4 mps 759 mmHg 59%
    10:00 +29°C° 0 mm 4 mps 759 mmHg 53%
    11:00 +30°C° 0 mm 4 mps 759 mmHg 51%
    12:00 +32°C° 0 mm 4 mps 759 mmHg 49%
    13:00 +33°C° 0 mm 4 mps 758 mmHg 46%
    14:00 +34°C° 0 mm 3 mps 758 mmHg 46%
    15:00 +34°C° 0 mm 3 mps 758 mmHg 45%
    16:00 +34°C° 0 mm 3 mps 758 mmHg 45%
    17:00 +32°C° 0 mm 2 mps 758 mmHg 49%
    18:00 +31°C° 0 mm 2 mps 758 mmHg 53%
    19:00 +30°C° 0 mm 2 mps 758 mmHg 57%
    20:00 +28°C° 0 mm 2 mps 758 mmHg 57%
    21:00 +27°C° 0 mm 2 mps 758 mmHg 57%
    22:00 +26°C° 0 mm 2 mps 758 mmHg 57%
    23:00 +25°C° 0 mm 2 mps 758 mmHg 58%
    Show more